STARLINK-31297, 59158

Orbit data source: Space-Track

STARLINK-31297, 59158 is a payload satellite owned by SpaceX/Seattle (US) in LEO that was launched on Mon, 04 Mar 2024 UTC via an FALCON 9 launch vehicle from the Air Force Eastern Test Range (AFETR). Payload-class satellites include a variety of spacecraft equipped with specific instruments for various scientific and technological missions. These include communications satellites like Starlink; space stations such as the ISS; scientific satellites like the Hubble; Earth observation satellites from companies like Planet Labs, Umbra, and HawkEye 360; GPS; miniature CubeSats for education and research; and military/defense satellites.

Loading next visibility...
Identifier
59158, 2024-044G
Orbit
LEO
Country
Flag of USUS
Related business
Manufacturer
SpaceX/Seattle
Mission
Operational Commercial Communications
Bus & Motor
STARLINK V2M, Unknown motor
Mass
730 kg wet, ~700 kg dry
Launch date (UTC)
2024-03-04 (2 years ago)
Launch vehicle
FALCON 9
Launch site
Air Force Eastern Test Range (AFETR)
Object type
Payload
Rocket body
Debris
Shape & HBR
Box + 2 Pan, 17.7 m
Radar Cross Section
33.884 m², Large (>1 m²)

Expand to show TLE details & history
Last TLE update: 2 days ago

TLE from 2 days ago
0 STARLINK-31297
1 59158U 24044G   26171.47477375  .00000199  00000-0  16750-4 0  9995
2 59158  43.0007 246.6913 0000938 254.2860 105.7888 15.27573822129317
Epoch: 2026-06-20T11:23Z
TLE epoch observation values (Epoch: 2026-06-20T11:23:40.451Z)
Latitude
-0.00001°
Longitude
167.08387°
Altitude
483.018 km
Speed
7.626 km/s
True Right ascension
16h 26m 45s
True Declination
0° 00' 00"
Sunlit
Object was in full shadow at epoch
Visualization orbit readout
Latitude
Unknown
Longitude
Unknown
Altitude
Unknown
Speed
Unknown
Apparent Right ascension
Unknown
Apparent Declination
Unknown
Sunlit
N/A
Visualization observer readout
Local Sidereal Time
00:50:57
Azimuth
Unknown
Elevation
Unknown
Doppler factor
Unknown
Orbital elements
Apogee altitude
485.656 km
Perigee altitude
484.369 km
Semi-major axis
6,863.15 km
Eccentricity
0.00009
Inclination
43.0007°
RAAN
246.6913°
Arg. of periapsis
254.286°
True anomaly
105.79914°
Mean anomaly
105.7888°
Eccentric anomaly
105.79397°
Mean motion
3.81731 °/min
Orbital period
94.31 mins
BSTAR
0.00001675
Loading maneuver chart data...
Computing Atmospheric mass density...
Loading historical data...
Loading historical data...
Loading historical data...
Loading historical data...
Loading historical data...
Loading historical data...
Loading historical data...

Documentation

Showing up to 5 results
|